Погода в Хоромном

Россия / Брянская область     52°04′07″N   32°02′06″E
темп.,
°C
ветер,
м/с
пор.,
м/с
влажн.,
%
обл.,
%
осадки,
мм/ч
давл.,
гПа
погр.,
м
20 сентября, пн
пн2000:00+11ююз1597100 6.9 1005362
03:00+8зюз5996100 10.4 1005363
06:00+9ю4698100 3.6 1003324
09:00+9вюв1295100 4.7 1004208
12:00+10сз2395100 2.9 1005294
15:00+9зсз5896100 7.0 1006548
18:00+8зсз61196100 1.6 1007638
21:00+7з61095100 1.8 1009549
21 сентября, вт
вт2100:00+6з51095100 0.4 1010539
03:00+5з5995100 1.3 1010522
06:00+5зюз5995100 1.2 1010522
09:00+5зюз5995100 1.8 1011495
12:00+5зюз51096100 0.7 1011553
15:00+6з51095100 1.5 1011523
18:00+6зсз61096100 1.1 1012542
21:00+5зсз61095100 1.8 1013552
22 сентября, ср
ср2200:00+5зсз5996100 0.1 1013569
03:00+5зсз51096100 0.8 1013567
06:00+4зсз5996100 0.4 1013529
09:00+5сз4896100 0.5 1013486
12:00+5сз3696100 0.3 1014437
15:00+8зсз4488100 0.3 1014567
18:00+6зсз3695100 0.2 1014319
21:00+6сз3696100 0.3 1014294
23 сентября, чт
чт2300:00+6сз359792 0.0 1014251
03:00+6сз3595100 0.0 1014305
06:00+5сз2495100 0.0 1014233
09:00+6сз239194 0.0 1015351
12:00+8зсз2281100 0.1 1015621
15:00+8зюз3377100 0.1 1014747
18:00+7зюз238391 0.1 1014304
21:00+6з248799 0.1 1015150
24 сентября, пт
пт2400:00+6зюз1287100 0.0 101496
03:00+6ююз2390100 0.0 1014145
06:00+5ююз3691100 0.0 1013304
09:00+7ю4886100 0.0 1012514
12:00+9ю61074100 0.0 1009804
15:00+10ю81470100 0.0 1007954
18:00+9юз61293100 2.4 1006731
21:00+9юз4109572 2.4 1007340